Paynesville, MN

11:03 AM CDT on April 30, 2017 (GMT -0500)
Paynesville

Weather History for KPEX - February, 2013

Change the Weather History Date:

Wednesday, February 20, 2013

  Actual Average (KLJF) Record (KLJF)
Temperature  
Mean Temperature -6 °F -  
Max Temperature 8 °F 31 °F 55 °F (1981)
Min Temperature -21 °F 8 °F -20 °F (2008)
Degree Days  
Heating Degree Days 72    
Moisture  
Dew Point -11 °F    
Average Humidity 71    
Maximum Humidity 78    
Minimum Humidity 60    
Precipitation  
Precipitation 0.00 in - - ()
Sea Level Pressure  
Sea Level Pressure 30.40 in    
Wind  
Wind Speed 2 mph (North)    
Max Wind Speed 6 mph    
Max Gust Speed -    
Visibility 10 miles    
Events      
Averages and records for this station are not official NWS values.
T = Trace of Precipitation, MM = Missing Value Source: NWS Daily Summary

Daily Weather History Graph

Daily Weather History Graph

Search for Another Location

Airport or City:

Trip Planner

Search our weather history database for the weather conditions in past years. The results will help you decide how hot, cold, wet, or windy it might be!

Date:

Astronomy

Feb. 20, 2013 Rise Set
Actual Time 7:12 AM CST 5:53 PM CST
Civil Twilight 6:42 AM CST 6:24 PM CST
Nautical Twilight 6:07 AM CST 6:58 PM CST
Astronomical Twilight 5:33 AM CST 7:32 PM CST
Moon 1:07 PM CST (2/20) 3:41 AM CST (2/20)
Length of Visible Light 11h 41m
Length of Day
10h 41m
Waxing Gibbous, 76% of the Moon is Illuminated
Feb 20
Waxing Gibbous
Feb 25
Full
Mar 4
Last Quarter
Mar 11
New
Mar 19
First Quarter

Hourly Weather History & Observations

Time (CST) Temp. Windchill Dew Point Humidity Pressure Visibility Wind Dir Wind Speed Gust Speed Precip Events Conditions
12:12 AM -12.6 °F -22.3 °F -19.1 °F 73% 30.38 in 10.0 mi WNW 3.5 mph - N/A   Clear
12:33 AM -11.7 °F - -17.9 °F 74% 30.38 in 10.0 mi Calm Calm - N/A   Clear
12:53 AM -12.3 °F - -18.4 °F 74% 30.38 in 10.0 mi Calm Calm - N/A   Clear
1:13 AM -12.1 °F - -18.2 °F 74% 30.39 in 10.0 mi Calm Calm - N/A   Clear
1:33 AM -14.3 °F -28.5 °F -20.0 °F 75% 30.40 in 10.0 mi West 5.8 mph - N/A   Clear
1:53 AM -15.2 °F -27.6 °F -20.9 °F 75% 30.40 in 10.0 mi West 4.6 mph - N/A   Clear
2:13 AM -16.1 °F -30.6 °F -21.8 °F 75% 30.40 in 10.0 mi West 5.8 mph - N/A   Clear
2:33 AM -15.3 °F -27.8 °F -21.1 °F 75% 30.40 in 10.0 mi West 4.6 mph - N/A   Clear
2:53 AM -16.1 °F - -21.3 °F 77% 30.40 in 10.0 mi Calm Calm - N/A   Clear
3:33 AM -17.7 °F -28.0 °F -23.3 °F 76% 30.40 in 10.0 mi West 3.5 mph - N/A   Clear
3:53 AM -15.7 °F -30.2 °F -20.7 °F 78% 30.41 in 10.0 mi WSW 5.8 mph - N/A   Clear
4:13 AM -17.1 °F -27.4 °F -23.3 °F 74% 30.41 in 10.0 mi WSW 3.5 mph - N/A   Clear
4:32 AM -16.4 °F - -22.0 °F 76% 30.42 in 10.0 mi Calm Calm - N/A   Clear
4:53 AM -17.3 °F - -22.4 °F 78% 30.41 in 10.0 mi Calm Calm - N/A   Clear
5:13 AM -17.5 °F - -22.9 °F 76% 30.41 in 10.0 mi Calm Calm - N/A   Clear
5:33 AM -17.5 °F - -22.7 °F 77% 30.42 in 10.0 mi Calm Calm - N/A   Clear
5:53 AM -18.6 °F - -23.8 °F 77% 30.42 in 10.0 mi Calm Calm - N/A   Clear
6:13 AM -19.8 °F -30.5 °F -25.6 °F 75% 30.42 in 10.0 mi West 3.5 mph - N/A   Clear
6:33 AM -19.3 °F - -24.7 °F 76% 30.42 in 10.0 mi Calm Calm - N/A   Clear
6:53 AM -19.3 °F - -24.7 °F 76% 30.42 in 10.0 mi Calm Calm - N/A   Clear
7:13 AM -19.7 °F - -25.4 °F 75% 30.43 in 10.0 mi Calm Calm - N/A   Clear
7:33 AM -21.5 °F -34.9 °F -27.6 °F 73% 30.43 in 10.0 mi West 4.6 mph - N/A   Clear
7:53 AM -20.4 °F - -26.1 °F 75% 30.43 in 10.0 mi Calm Calm - N/A   Clear
8:13 AM -18.4 °F - -24.2 °F 75% 30.43 in 10.0 mi Calm Calm - N/A   Clear
8:33 AM -14.4 °F - -19.8 °F 77% 30.43 in 10.0 mi Calm Calm - N/A   Clear
8:53 AM -8.7 °F -20.0 °F -14.1 °F 77% 30.42 in 10.0 mi NNE 4.6 mph - N/A   Clear
9:13 AM -6.5 °F -15.3 °F -12.3 °F 76% 30.42 in 10.0 mi NNE 3.5 mph - N/A   Clear
9:33 AM -4.9 °F -17.4 °F -11.2 °F 74% 30.41 in 10.0 mi NE 5.8 mph - N/A   Clear
9:53 AM -3.1 °F -15.2 °F -10.1 °F 72% 30.42 in 10.0 mi ENE 5.8 mph - N/A   Clear
10:13 AM -2.0 °F -10.1 °F -9.9 °F 69% 30.42 in 10.0 mi ENE 3.5 mph - N/A   Clear
10:33 AM -0.8 °F -8.7 °F -9.2 °F 67% 30.42 in 10.0 mi ENE 3.5 mph - N/A   Clear
10:53 AM 0.9 °F -8.9 °F -8.5 °F 65% 30.42 in 10.0 mi ENE 4.6 mph - N/A   Clear
11:13 AM 2.5 °F - -7.8 °F 62% 30.43 in 10.0 mi Calm Calm - N/A   Clear
11:33 AM 3.0 °F - -7.1 °F 63% 30.43 in 10.0 mi Calm Calm - N/A   Clear
11:53 AM 4.8 °F - -6.5 °F 60% 30.43 in 10.0 mi Calm Calm - N/A   Clear
12:13 PM 5.4 °F - -5.4 °F 61% 30.43 in 10.0 mi Calm Calm - N/A   Clear
12:33 PM 5.4 °F - -5.1 °F 62% 30.42 in 10.0 mi Calm Calm - N/A   Clear
12:53 PM 5.0 °F -2.1 °F -4.9 °F 64% 30.43 in 10.0 mi West 3.5 mph - N/A   Clear
1:13 PM 5.5 °F - -4.9 °F 62% 30.42 in 10.0 mi Calm Calm - N/A   Clear
1:33 PM 5.9 °F - -4.7 °F 62% 30.41 in 10.0 mi Calm Calm - N/A   Clear
1:53 PM 6.6 °F -0.3 °F -4.2 °F 61% 30.41 in 10.0 mi North 3.5 mph - N/A   Clear
2:12 PM 7.0 °F -1.7 °F -3.3 °F 63% 30.41 in 10.0 mi NNE 4.6 mph - N/A   Clear
2:33 PM 7.3 °F 0.5 °F -2.9 °F 63% 30.41 in 10.0 mi NNE 3.5 mph - N/A   Clear
2:53 PM 7.5 °F 0.8 °F -2.9 °F 62% 30.40 in 10.0 mi NNE 3.5 mph - N/A   Clear
3:13 PM 8.6 °F 0.1 °F -2.4 °F 61% 30.40 in 10.0 mi NNE 4.6 mph - N/A   Clear
3:33 PM 8.2 °F 1.6 °F -2.2 °F 63% 30.39 in 10.0 mi North 3.5 mph - N/A   Clear
3:53 PM 8.2 °F 1.6 °F -2.0 °F 63% 30.39 in 10.0 mi NE 3.5 mph - N/A   Clear
4:12 PM 8.6 °F -1.3 °F -2.2 °F 62% 30.38 in 10.0 mi NNE 5.8 mph - N/A   Clear
4:33 PM 7.7 °F 1.0 °F -2.0 °F 65% 30.38 in 10.0 mi NNE 3.5 mph - N/A   Clear
4:52 PM 7.7 °F 1.0 °F -2.0 °F 65% 30.38 in 10.0 mi North 3.5 mph - N/A   Clear
5:13 PM 7.2 °F - -1.8 °F 67% 30.38 in 10.0 mi Calm Calm - N/A   Clear
5:33 PM 6.8 °F - -2.2 °F 67% 30.37 in 10.0 mi Calm Calm - N/A   Clear
5:53 PM 6.3 °F - -2.2 °F 68% 30.37 in 10.0 mi Calm Calm - N/A   Clear
6:13 PM 6.1 °F - -2.0 °F 69% 30.38 in 10.0 mi Calm Calm - N/A   Clear
6:33 PM 5.9 °F - -1.8 °F 70% 30.37 in 10.0 mi Calm Calm - N/A   Clear
6:53 PM 4.6 °F - -2.7 °F 72% 30.38 in 10.0 mi Calm Calm - N/A   Clear
7:13 PM 2.1 °F - -4.7 °F 73% 30.37 in 10.0 mi Calm Calm - N/A   Clear
7:32 PM 2.8 °F - -3.3 °F 76% 30.37 in 10.0 mi Calm Calm - N/A   Clear
7:53 PM 3.0 °F - -4.2 °F 72% 30.37 in 10.0 mi Calm Calm - N/A   Clear
8:13 PM 1.2 °F - -4.5 °F 77% 30.36 in 10.0 mi Calm Calm - N/A   Clear
8:33 PM 3.6 °F -5.7 °F -2.4 °F 76% 30.36 in 10.0 mi ENE 4.6 mph - N/A   Clear
8:53 PM 1.8 °F -5.8 °F -4.0 °F 77% 30.35 in 10.0 mi ENE 3.5 mph - N/A   Clear
9:13 PM 5.4 °F -1.7 °F -2.2 °F 71% 30.35 in 10.0 mi East 3.5 mph - N/A   Clear
9:33 PM 5.4 °F -1.7 °F -2.9 °F 69% 30.35 in 10.0 mi ENE 3.5 mph - N/A   Clear
9:53 PM 6.4 °F - -2.6 °F 67% 30.36 in 10.0 mi Calm Calm - N/A   Clear
10:33 PM 5.7 °F - -2.9 °F 68% 30.36 in 10.0 mi Calm Calm - N/A   Clear
10:53 PM -0.9 °F - -6.7 °F 77% 30.36 in 10.0 mi Calm Calm - N/A   Clear
11:13 PM 2.3 °F - -4.0 °F 75% 30.36 in 10.0 mi Calm Calm - N/A   Clear
11:33 PM 0.5 °F - -5.1 °F 77% 30.36 in 10.0 mi Calm Calm - N/A   Clear
11:53 PM 0.5 °F - -5.1 °F 77% 30.36 in 10.0 mi Calm Calm - N/A   Clear